This is the latest recevied weather packets stored in our database for station/object K4CRS-13. If no packets are shown the sender has not sent any weather packets the latest 10 day(s).
| Time | Temp. | Humidity | Pressure | Rain* | Wind** | Luminosity | Snow |
|---|---|---|---|---|---|---|---|
| 1777898141 | 10.56° C | 98% | 1051.8 hPa | 0 mm | - | 130 W/m² | - |
| 1777897838 | 10.56° C | 99% | 1051.8 hPa | 0 mm | - | 100 W/m² | - |
| 1777897533 | 9.44° C | 99% | 1051.8 hPa | 0 mm | - | 93 W/m² | - |
| 1777897229 | 8.89° C | 99% | 1051.8 hPa | 0 mm | - | 65 W/m² | - |
| 1777896926 | 8.89° C | 99% | 1051.6 hPa | 0 mm | - | 48 W/m² | - |
| 1777896623 | 8.33° C | 99% | 1051.8 hPa | 0 mm | - | 45 W/m² | - |
| 1777896320 | 7.78° C | 99% | 1051.9 hPa | 0 mm | - | 45 W/m² | - |
| 1777896018 | 7.78° C | 99% | 1051.8 hPa | 0 mm | - | 36 W/m² | - |
| 1777895716 | 7.22° C | 99% | 1051.7 hPa | 0 mm | - | 32 W/m² | - |
| 1777895413 | 7.22° C | 99% | 1051.6 hPa | 0 mm | - | 30 W/m² | - |
| 1777895110 | 7.22° C | 99% | 1051.5 hPa | 0 mm | - | 29 W/m² | - |
| 1777894808 | 6.67° C | 99% | 1051.6 hPa | 0 mm | - | 27 W/m² | - |
| 1777894504 | 6.67° C | 99% | 1051.4 hPa | 0 mm | - | 26 W/m² | - |
| 1777894201 | 6.67° C | 99% | 1051.4 hPa | 0 mm | - | 22 W/m² | - |
| 1777893898 | 6.67° C | 99% | 1051.4 hPa | 0 mm | - | 19 W/m² | - |
| 1777893594 | 6.11° C | 99% | 1051.5 hPa | 0 mm | - | 16 W/m² | - |
| 1777893291 | 6.11° C | 99% | 1051.4 hPa | 0 mm | - | 12 W/m² | - |
| 1777892987 | 6.11° C | 99% | 1051.4 hPa | 0 mm | - | 7 W/m² | - |
| 1777892684 | 6.11° C | 99% | 1051.3 hPa | 0 mm | - | 4 W/m² | - |
| 1777892380 | 6.11° C | 99% | 1051.3 hPa | 0 mm | - | 3 W/m² | - |
| 1777892076 | 6.11° C | 99% | 1051 hPa | 0 mm | - | 1 W/m² | - |
| 1777891774 | 6.11° C | 99% | 1051.1 hPa | 0 mm | - | 1 W/m² | - |
| 1777891470 | 5.56° C | 99% | 1051.1 hPa | 0 mm | - | 0 W/m² | - |
| 1777891166 | 5.56° C | 99% | 1051 hPa | 0 mm | - | 0 W/m² | - |
| 1777890866 | 6.11° C | 99% | 1050.9 hPa | 0 mm | - | 0 W/m² | - |
* Rain latest hour (hover to see other rain measurements)
** Current wind speed in m/s (hover to see current wind gust speed)